This is the latest recevied weather packets stored in our database for station/object HB9SZU-7. If no packets are shown the sender has not sent any weather packets the latest 10 day(s).
| Time | Temp. | Humidity | Pressure | Rain* | Wind** | Luminosity | Snow |
|---|---|---|---|---|---|---|---|
| 1777649869 | 15.56° C | 52% | 944.3 hPa | - | - | - | - |
| 1777648910 | 16.11° C | 52% | 944.5 hPa | - | - | - | - |
| 1777647949 | 16.11° C | 52% | 944.6 hPa | - | - | - | - |
| 1777646990 | 16.11° C | 52% | 944.6 hPa | - | - | - | - |
| 1777646030 | 16.11° C | 52% | 944.8 hPa | - | - | - | - |
| 1777645070 | 16.11° C | 50% | 945 hPa | - | - | - | - |
| 1777644110 | 16.11° C | 52% | 945.1 hPa | - | - | - | - |
| 1777643150 | 16.11° C | 51% | 945.2 hPa | - | - | - | - |
| 1777642189 | 16.11° C | 51% | 945.4 hPa | - | - | - | - |
| 1777641229 | 16.11° C | 51% | 945.4 hPa | - | - | - | - |
| 1777640269 | 16.11° C | 51% | 945.6 hPa | - | - | - | - |
| 1777639309 | 15.56° C | 52% | 945.7 hPa | - | - | - | - |
| 1777638349 | 15.56° C | 52% | 945.7 hPa | - | - | - | - |
| 1777637389 | 15.56° C | 53% | 945.7 hPa | - | - | - | - |
| 1777636430 | 15° C | 52% | 945.7 hPa | - | - | - | - |
| 1777635470 | 14.44° C | 54% | 946.2 hPa | - | - | - | - |
| 1777634509 | 14.44° C | 54% | 946.2 hPa | - | - | - | - |
| 1777633550 | 14.44° C | 54% | 946.2 hPa | - | - | - | - |
| 1777632589 | 14.44° C | 54% | 946.2 hPa | - | - | - | - |
| 1777631629 | 13.89° C | 54% | 946.3 hPa | - | - | - | - |
| 1777630669 | 13.89° C | 53% | 946.2 hPa | - | - | - | - |
| 1777629710 | 13.33° C | 55% | 946.2 hPa | - | - | - | - |
| 1777628750 | 11.11° C | 61% | 946.2 hPa | - | - | - | - |
| 1777627790 | 11.11° C | 61% | 946.2 hPa | - | - | - | - |
| 1777626830 | 11.11° C | 61% | 946.2 hPa | - | - | - | - |
* Rain since midnight (hover to see other rain measurements)
** Current wind speed in m/s (hover to see current wind gust speed)